TimeCDT,TemperatureF,Dew PointF,Humidity,Sea Level PressureIn,VisibilityMPH,Wind Direction,Wind SpeedMPH,Gust SpeedMPH,PrecipitationIn,Events,Conditions,WindDirDegrees,DateUTC
12:15 AM,47.8,42.1,80,29.88,10.0,Calm,Calm,-,N/A,,Clear,0,2013-05-16 05:15:00
12:35 AM,47.3,42.8,84,29.88,10.0,Calm,Calm,-,N/A,,Clear,0,2013-05-16 05:35:00
12:55 AM,46.8,42.4,85,29.88,10.0,Calm,Calm,-,N/A,,Clear,0,2013-05-16 05:55:00
1:15 AM,45.7,41.5,85,29.88,10.0,Calm,Calm,-,N/A,,Clear,0,2013-05-16 06:15:00
1:35 AM,45.5,41.7,87,29.88,10.0,Calm,Calm,-,N/A,,Clear,0,2013-05-16 06:35:00
1:55 AM,44.6,41.5,89,29.88,10.0,Calm,Calm,-,N/A,,Clear,0,2013-05-16 06:55:00
2:15 AM,45.0,42.8,92,29.88,10.0,Calm,Calm,-,N/A,,Clear,0,2013-05-16 07:15:00
2:35 AM,43.9,42.1,93,29.88,10.0,Calm,Calm,-,N/A,,Clear,0,2013-05-16 07:35:00
2:55 AM,43.7,41.9,93,29.88,10.0,Calm,Calm,-,N/A,,Clear,0,2013-05-16 07:55:00
3:15 AM,42.8,41.5,95,29.89,10.0,Calm,Calm,-,N/A,,Clear,0,2013-05-16 08:15:00
3:35 AM,43.3,41.5,93,29.88,10.0,Calm,Calm,-,N/A,,Clear,0,2013-05-16 08:35:00
3:55 AM,43.0,41.0,93,29.88,10.0,Calm,Calm,-,N/A,,Clear,0,2013-05-16 08:55:00
4:15 AM,41.5,40.1,95,29.88,10.0,Calm,Calm,-,N/A,,Clear,0,2013-05-16 09:15:00
4:35 AM,41.2,39.7,95,29.89,10.0,Calm,Calm,-,N/A,,Clear,0,2013-05-16 09:35:00
4:55 AM,41.7,39.7,93,29.89,10.0,Calm,Calm,-,N/A,,Clear,0,2013-05-16 09:55:00
5:15 AM,41.0,39.7,95,29.89,10.0,Calm,Calm,-,N/A,,Clear,0,2013-05-16 10:15:00
5:35 AM,40.5,39.2,95,29.90,10.0,Calm,Calm,-,N/A,,Clear,0,2013-05-16 10:35:00
5:55 AM,40.8,39.4,95,29.90,10.0,Calm,Calm,-,N/A,,Clear,0,2013-05-16 10:55:00
6:15 AM,41.4,39.6,93,29.90,10.0,Calm,Calm,-,N/A,,Clear,0,2013-05-16 11:15:00
6:35 AM,43.7,41.5,92,29.91,10.0,Calm,Calm,-,N/A,,Clear,0,2013-05-16 11:35:00
6:55 AM,46.2,42.8,88,29.92,10.0,Calm,Calm,-,N/A,,Clear,0,2013-05-16 11:55:00
7:15 AM,49.8,45.7,86,29.92,10.0,Calm,Calm,-,N/A,,Clear,0,2013-05-16 12:15:00
7:35 AM,54.0,46.2,75,29.93,10.0,Calm,Calm,-,N/A,,Clear,0,2013-05-16 12:35:00
7:55 AM,57.4,46.6,67,29.93,10.0,Calm,Calm,-,N/A,,Clear,0,2013-05-16 12:55:00
8:15 AM,61.0,47.1,60,29.94,10.0,Calm,Calm,-,N/A,,Clear,0,2013-05-16 13:15:00
8:35 AM,64.2,45.3,50,29.94,10.0,Calm,Calm,-,N/A,,Clear,0,2013-05-16 13:35:00
8:55 AM,67.1,44.8,45,29.93,10.0,Calm,Calm,-,N/A,,Clear,0,2013-05-16 13:55:00
9:15 AM,69.4,43.7,39,29.93,10.0,WNW,3.5,-,N/A,,Clear,300,2013-05-16 14:15:00
9:35 AM,70.9,40.6,33,29.93,10.0,West,3.5,-,N/A,,Clear,260,2013-05-16 14:35:00
9:55 AM,72.5,40.8,32,29.93,10.0,WNW,4.6,-,N/A,,Clear,290,2013-05-16 14:55:00
10:15 AM,73.2,41.9,32,29.93,10.0,Calm,Calm,-,N/A,,Clear,0,2013-05-16 15:15:00
10:35 AM,73.9,43.2,33,29.92,10.0,WNW,3.5,-,N/A,,Clear,300,2013-05-16 15:35:00
10:55 AM,74.8,43.3,32,29.92,10.0,West,3.5,-,N/A,,Clear,280,2013-05-16 15:55:00
11:15 AM,76.3,43.3,31,29.92,10.0,Calm,Calm,-,N/A,,Clear,0,2013-05-16 16:15:00
11:35 AM,77.4,43.2,30,29.92,10.0,WNW,5.8,-,N/A,,Clear,300,2013-05-16 16:35:00
11:55 AM,78.3,42.6,28,29.92,10.0,WNW,4.6,-,N/A,,Clear,300,2013-05-16 16:55:00
12:15 PM,79.3,41.2,26,29.91,10.0,Calm,Calm,-,N/A,,Clear,0,2013-05-16 17:15:00
12:35 PM,80.1,41.7,26,29.90,10.0,West,3.5,-,N/A,,Clear,260,2013-05-16 17:35:00
12:55 PM,81.5,41.5,24,29.90,10.0,SW,6.9,-,N/A,,Clear,220,2013-05-16 17:55:00
1:15 PM,81.1,40.6,24,29.90,10.0,SW,9.2,-,N/A,,Clear,220,2013-05-16 18:15:00
1:35 PM,81.1,40.6,24,29.89,10.0,WSW,8.1,-,N/A,,Clear,250,2013-05-16 18:35:00
1:55 PM,82.2,38.5,21,29.89,10.0,West,8.1,-,N/A,,Clear,280,2013-05-16 18:55:00
2:15 PM,83.5,39.4,21,29.89,10.0,West,6.9,-,N/A,,Clear,260,2013-05-16 19:15:00
2:35 PM,83.3,37.8,20,29.88,10.0,SSW,6.9,17.3,N/A,,Clear,200,2013-05-16 19:35:00
2:55 PM,82.8,36.5,19,29.88,10.0,West,6.9,16.1,N/A,,Clear,270,2013-05-16 19:55:00
3:15 PM,82.9,36.7,19,29.87,10.0,Calm,Calm,-,N/A,,Clear,0,2013-05-16 20:15:00
3:35 PM,84.0,35.4,18,29.87,10.0,South,5.8,-,N/A,,Clear,180,2013-05-16 20:35:00
3:55 PM,84.0,37.4,19,29.87,10.0,NNW,5.8,16.1,N/A,,Clear,340,2013-05-16 20:55:00
4:15 PM,83.5,36.9,19,29.86,10.0,WNW,8.1,-,N/A,,Clear,290,2013-05-16 21:15:00
4:35 PM,83.5,37.8,20,29.86,10.0,NW,5.8,-,N/A,,Clear,310,2013-05-16 21:35:00
5:15 PM,82.9,37.6,20,29.87,10.0,WNW,5.8,-,N/A,,Clear,290,2013-05-16 22:15:00
5:35 PM,82.2,38.1,21,29.87,10.0,Calm,Calm,-,N/A,,Clear,0,2013-05-16 22:35:00
5:55 PM,82.6,36.9,19,29.87,10.0,Calm,Calm,-,N/A,,Clear,0,2013-05-16 22:55:00
6:15 PM,81.9,37.6,21,29.87,10.0,West,3.5,-,N/A,,Clear,270,2013-05-16 23:15:00
6:35 PM,81.9,37.8,21,29.86,10.0,West,3.5,-,N/A,,Clear,280,2013-05-16 23:35:00
6:55 PM,81.3,37.9,21,29.87,10.0,Calm,Calm,-,N/A,,Clear,0,2013-05-16 23:55:00
7:15 PM,80.2,38.7,23,29.87,10.0,Calm,Calm,-,N/A,,Clear,0,2013-05-17 00:15:00
7:35 PM,76.6,42.8,30,29.87,10.0,Calm,Calm,-,N/A,,Clear,0,2013-05-17 00:35:00
7:55 PM,75.6,41.4,29,29.88,10.0,North,6.9,-,N/A,,Clear,10,2013-05-17 00:55:00
8:15 PM,75.6,41.7,30,29.90,10.0,NE,9.2,-,N/A,,Clear,50,2013-05-17 01:15:00
8:35 PM,74.3,46.6,37,29.91,10.0,East,10.4,19.6,N/A,,Clear,90,2013-05-17 01:35:00
8:55 PM,72.7,47.7,41,29.92,10.0,East,11.5,-,N/A,,Clear,90,2013-05-17 01:55:00
9:15 PM,71.4,47.7,43,29.92,10.0,East,11.5,-,N/A,,Clear,100,2013-05-17 02:15:00
9:35 PM,70.5,47.3,44,29.94,10.0,East,8.1,-,N/A,,Clear,90,2013-05-17 02:35:00
9:55 PM,69.3,47.1,45,29.94,10.0,East,8.1,-,N/A,,Clear,90,2013-05-17 02:55:00
10:15 PM,68.9,45.9,44,29.94,10.0,East,10.4,-,N/A,,Scattered Clouds,90,2013-05-17 03:15:00
10:35 PM,68.0,44.1,42,29.94,10.0,East,11.5,-,N/A,,Scattered Clouds,100,2013-05-17 03:35:00
10:55 PM,67.5,42.3,40,29.95,10.0,ESE,15.0,20.7,N/A,,Clear,110,2013-05-17 03:55:00
11:15 PM,66.6,42.4,42,29.95,10.0,East,8.1,-,N/A,,Clear,100,2013-05-17 04:15:00
11:35 PM,65.8,41.0,40,29.95,10.0,ESE,11.5,-,N/A,,Clear,120,2013-05-17 04:35:00
11:55 PM,65.3,39.0,38,29.96,10.0,ESE,11.5,17.3,N/A,,Clear,110,2013-05-17 04:55:00